| time (UTC) | temp C | wind direction | speed KPH | gust KPH | rain 1hr cm | rain 24hr cm | rain mn cm | humidity % | barometer mb |
| 20260503224521 | 13 | 247 | 4.8 | 12.9 | 0.00 | 0.00 | 0.00 | 50 | 1012.8 |
| 20260503223020 | 13 | 242 | 3.2 | 16.1 | 0.00 | 0.00 | 0.00 | 50 | 1012.9 |
| 20260503221529 | 13 | 260 | 6.4 | 17.7 | 0.00 | 0.00 | 0.00 | 49 | 1013.0 |
| 20260503220020 | 13 | 249 | 4.8 | 14.5 | 0.00 | 0.00 | 0.00 | 49 | 1012.9 |
| 20260503214519 | 13 | 249 | 4.8 | 19.3 | 0.00 | 0.00 | 0.00 | 50 | 1013.0 |
| 20260503213028 | 13 | 220 | 4.8 | 16.1 | 0.00 | 0.00 | 0.00 | 49 | 1012.8 |
| 20260503211519 | 13 | 241 | 6.4 | 24.1 | 0.00 | 0.00 | 0.00 | 48 | 1012.9 |
| 20260503210018 | 15 | 254 | 4.8 | 19.3 | 0.00 | 0.00 | 0.00 | 43 | 1012.9 |
| 20260503204518 | 15 | 258 | 9.7 | 20.9 | 0.00 | 0.00 | 0.00 | 42 | 1013.1 |
| 20260503203016 | 15 | 289 | 6.4 | 20.9 | 0.00 | 0.00 | 0.00 | 40 | 1013.1 |
| 20260503201525 | 15 | 277 | 11.3 | 20.9 | 0.00 | 0.00 | 0.00 | 38 | 1013.4 |
| 20260503200011 | 15 | 235 | 11.3 | 24.1 | 0.00 | 0.00 | 0.00 | 39 | 1013.6 |
| 20260503194508 | 15 | 264 | 11.3 | 29.0 | 0.00 | 0.00 | 0.00 | 42 | 1013.8 |
| 20260503193007 | 15 | 259 | 11.3 | 22.5 | 0.00 | 0.00 | 0.00 | 43 | 1014.0 |
| 20260503191505 | 14 | 299 | 11.3 | 24.1 | 0.00 | 0.00 | 0.00 | 43 | 1014.0 |
| 20260503190002 | 14 | 243 | 12.9 | 30.6 | 0.00 | 0.00 | 0.00 | 43 | 1014.3 |
| 20260503184502 | 13 | 255 | 14.5 | 24.1 | 0.00 | 0.00 | 0.00 | 45 | 1014.4 |
| 20260503183110 | 14 | 292 | 12.9 | 22.5 | 0.00 | 0.00 | 0.00 | 45 | 1014.6 |
| 20260503181623 | 13 | 359 | 11.3 | 24.1 | 0.00 | 0.00 | 0.00 | 44 | 1014.7 |
| 20260503180131 | 13 | 243 | 11.3 | 20.9 | 0.00 | 0.00 | 0.00 | 44 | 1014.8 |
| 20260503174559 | 13 | 249 | 9.7 | 20.9 | 0.00 | 0.00 | 0.00 | 45 | 1015.0 |
| 20260503173059 | 13 | 285 | 9.7 | 17.7 | 0.00 | 0.00 | 0.00 | 47 | 1015.2 |
| 20260503171554 | 13 | 256 | 8.0 | 17.7 | 0.00 | 0.00 | 0.00 | 50 | 1015.3 |
| 20260503120106 | 4 | 210 | 1.6 | 9.7 | 0.00 | 0.00 | 0.00 | 82 | 1017.3 |
| 20260503081522 | 1 | 206 | 1.6 | 8.0 | 0.00 | 0.00 | 0.00 | 83 | 1017.2 |
| 20260503071525 | 1 | 193 | 0.0 | 8.0 | 0.00 | 0.00 | 0.00 | 83 | 1017.3 |
| 20260503054515 | 1 | 195 | 1.6 | 8.0 | 0.00 | 0.00 | 0.00 | 84 | 1017.6 |
| 20260503053010 | 1 | 210 | 1.6 | 4.8 | 0.00 | 0.00 | 0.00 | 84 | 1017.8 |
| 20260503051507 | 1 | 208 | 0.0 | 3.2 | 0.00 | 0.00 | 0.00 | 83 | 1017.8 |
| 20260503050006 | 1 | 223 | 1.6 | 6.4 | 0.00 | 0.00 | 0.00 | 83 | 1017.9 |
| 20260503044502 | 1 | 359 | 0.0 | 4.8 | 0.00 | 0.00 | 0.00 | 82 | 1017.9 |
| 20260503043001 | 2 | 185 | 0.0 | 4.8 | 0.00 | 0.00 | 0.00 | 82 | 1017.9 |
| 20260503041559 | 2 | 359 | 0.0 | 4.8 | 0.00 | 0.00 | 0.00 | 80 | 1018.1 |
| 20260503040104 | 2 | 200 | 1.6 | 4.8 | 0.00 | 0.00 | 0.00 | 79 | 1018.1 |
| 20260503034558 | 2 | 359 | 0.0 | 6.4 | 0.00 | 0.00 | 0.00 | 78 | 1018.1 |
| 20260503033050 | 2 | 359 | 1.6 | 4.8 | 0.00 | 0.00 | 0.00 | 77 | 1018.1 |
| 20260503031548 | 3 | 193 | 0.0 | 6.4 | 0.00 | 0.00 | 0.00 | 76 | 1018.2 |
| 20260503030050 | 3 | 197 | 1.6 | 8.0 | 0.00 | 0.00 | 0.00 | 75 | 1018.2 |
| 20260503024544 | 3 | 201 | 1.6 | 6.4 | 0.00 | 0.00 | 0.00 | 73 | 1018.3 |
| 20260503023046 | 4 | 359 | 1.6 | 4.8 | 0.00 | 0.00 | 0.00 | 70 | 1018.4 |
| 20260503021542 | 5 | 228 | 0.0 | 1.6 | 0.00 | 0.00 | 0.00 | 68 | 1018.4 |
| 20260503020042 | 5 | 359 | 0.0 | 4.8 | 0.00 | 0.00 | 0.00 | 67 | 1018.3 |
| 20260503014550 | 5 | 359 | 0.0 | 3.2 | 0.00 | 0.00 | 0.00 | 67 | 1018.3 |
| 20260503013042 | 5 | 359 | 0.0 | 4.8 | 0.00 | 0.00 | 0.00 | 67 | 1018.2 |
| 20260503011543 | 5 | 359 | 1.6 | 11.3 | 0.00 | 0.00 | 0.00 | 67 | 1018.2 |
| 20260503010040 | 5 | 359 | 1.6 | 6.4 | 0.00 | 0.00 | 0.00 | 68 | 1018.2 |
| 20260503004543 | 5 | 359 | 1.6 | 6.4 | 0.00 | 0.00 | 0.00 | 67 | 1018.2 |
| 20260503003047 | 5 | 359 | 0.0 | 4.8 | 0.00 | 0.00 | 0.00 | 67 | 1018.2 |
| 20260503001547 | 5 | 256 | 1.6 | 9.7 | 0.00 | 0.00 | 0.00 | 65 | 1018.1 |
| 20260503000046 | 5 | 265 | 3.2 | 8.0 | 0.00 | 0.00 | 0.00 | 65 | 1018.1 |
| 20260502234551 | 5 | 260 | 1.6 | 8.0 | 0.00 | 0.00 | 0.00 | 65 | 1018.1 |
| 20260502233038 | 6 | 253 | 3.2 | 12.9 | 0.00 | 0.00 | 0.00 | 65 | 1018.1 |
| 20260502231537 | 6 | 359 | 4.8 | 12.9 | 0.00 | 0.00 | 0.00 | 64 | 1018.1 |
| 20260502230036 | 6 | 359 | 1.6 | 14.5 | 0.00 | 0.00 | 0.00 | 65 | 1018.1 |